• In Moldova, Republic
  • List of Countries
  • For 7 days
  • Water Temperature
  • Satellite Maps
  • Weather Map
  • Weather Widgets
  • user-avatar
    Login

    Hourly Weather Salzburg

    Today, 28 June, Wednesday

    Time Temperature Precipitation Wind Pressure Humidity
    00:00 +9°C° 0 mm 2 mps 622 mmHg 92%
    01:00 +9°C° 0 mm 2 mps 621 mmHg 91%
    02:00 +9°C° 0 mm 2 mps 621 mmHg 91%
    03:00 +9°C° 0 mm 2 mps 621 mmHg 91%
    04:00 +9°C° 0 mm 2 mps 620 mmHg 91%
    05:00 +10°C° 0 mm 2 mps 620 mmHg 88%
    06:00 +12°C° 0 mm 3 mps 621 mmHg 84%
    07:00 +13°C° 0 mm 3 mps 621 mmHg 81%
    08:00 +16°C° 0.1 mm 3 mps 621 mmHg 73%
    09:00 +18°C° 0.1 mm 3 mps 622 mmHg 66%
    10:00 +19°C° 0.1 mm 3 mps 622 mmHg 58%
    11:00 +19°C° 0.8 mm 3 mps 622 mmHg 61%
    12:00 +19°C° 0.8 mm 3 mps 622 mmHg 65%
    13:00 +19°C° 0.8 mm 3 mps 622 mmHg 68%
    14:00 +18°C° 1 mm 3 mps 621 mmHg 72%
    15:00 +17°C° 1 mm 3 mps 621 mmHg 76%
    16:00 +16°C° 1 mm 2 mps 620 mmHg 80%
    17:00 +15°C° 0.6 mm 2 mps 620 mmHg 85%
    18:00 +14°C° 0.6 mm 2 mps 619 mmHg 90%
    19:00 +13°C° 0.6 mm 1 mps 618 mmHg 95%
    20:00 +12°C° 0.8 mm 1 mps 618 mmHg 96%
    21:00 +12°C° 0.8 mm 1 mps 617 mmHg 96%
    22:00 +11°C° 0.8 mm 1 mps 617 mmHg 97%
    23:00 +10°C° 0.4 mm 1 mps 617 mmHg 97%

    Tomorrow, 29 June, Thursday

    Time Temperature Precipitation Wind Pressure Humidity
    00:00 +10°C° 0.4 mm 1 mps 616 mmHg 97%
    01:00 +10°C° 0.4 mm 1 mps 616 mmHg 97%
    02:00 +10°C° 0.9 mm 1 mps 615 mmHg 98%
    03:00 +9°C° 0.9 mm 1 mps 615 mmHg 98%
    04:00 +9°C° 0.9 mm 1 mps 615 mmHg 98%
    05:00 +8°C° 0.7 mm 2 mps 615 mmHg 97%
    06:00 +9°C° 0.7 mm 2 mps 616 mmHg 96%
    07:00 +9°C° 0.7 mm 2 mps 616 mmHg 95%
    08:00 +10°C° 0.6 mm 2 mps 617 mmHg 91%
    09:00 +10°C° 0.6 mm 2 mps 617 mmHg 88%
    10:00 +12°C° 0.6 mm 2 mps 618 mmHg 84%
    11:00 +12°C° 0.7 mm 2 mps 618 mmHg 84%
    12:00 +12°C° 0.7 mm 2 mps 619 mmHg 84%
    13:00 +12°C° 0.7 mm 2 mps 619 mmHg 84%
    14:00 +12°C° 0.7 mm 2 mps 619 mmHg 84%
    15:00 +12°C° 0.7 mm 2 mps 619 mmHg 85%
    16:00 +12°C° 0.7 mm 2 mps 619 mmHg 86%
    17:00 +12°C° 0.8 mm 2 mps 619 mmHg 88%
    18:00 +11°C° 0.8 mm 1 mps 619 mmHg 90%
    19:00 +11°C° 0.8 mm 1 mps 619 mmHg 92%
    20:00 +10°C° 0.5 mm 1 mps 619 mmHg 93%
    21:00 +9°C° 0.5 mm 1 mps 619 mmHg 93%
    22:00 +9°C° 0.5 mm 1 mps 620 mmHg 94%
    23:00 +8°C° 0.6 mm 1 mps 619 mmHg 94%

    Day after tomorrow, 30 June, Friday

    Time Temperature Precipitation Wind Pressure Humidity
    00:00 +8°C° 0.6 mm 1 mps 619 mmHg 95%
    01:00 +7°C° 0.6 mm 1 mps 619 mmHg 96%
    02:00 +7°C° 0.4 mm 1 mps 619 mmHg 96%
    03:00 +7°C° 0.4 mm 1 mps 619 mmHg 96%
    04:00 +6°C° 0.4 mm 2 mps 619 mmHg 96%
    05:00 +6°C° 0.8 mm 2 mps 620 mmHg 95%
    06:00 +6°C° 0.8 mm 2 mps 620 mmHg 95%
    07:00 +6°C° 0.8 mm 2 mps 621 mmHg 95%
    08:00 +7°C° 0.6 mm 2 mps 621 mmHg 92%
    09:00 +7°C° 0.6 mm 2 mps 621 mmHg 89%
    10:00 +8°C° 0.6 mm 2 mps 622 mmHg 86%
    11:00 +9°C° 0.5 mm 2 mps 622 mmHg 82%
    12:00 +10°C° 0.5 mm 2 mps 623 mmHg 77%
    13:00 +12°C° 0.5 mm 2 mps 623 mmHg 73%
    14:00 +12°C° 0.5 mm 2 mps 623 mmHg 71%
    15:00 +13°C° 0.5 mm 2 mps 623 mmHg 70%
    16:00 +13°C° 0.5 mm 2 mps 623 mmHg 69%
    17:00 +12°C° 0.6 mm 2 mps 623 mmHg 74%
    18:00 +10°C° 0.6 mm 2 mps 623 mmHg 80%
    19:00 +10°C° 0.6 mm 1 mps 623 mmHg 86%
    20:00 +9°C° 0.4 mm 1 mps 622 mmHg 89%
    21:00 +7°C° 0.4 mm 1 mps 622 mmHg 92%
    22:00 +6°C° 0.4 mm 1 mps 622 mmHg 96%
    23:00 +6°C° 0.4 mm 1 mps 621 mmHg 96%

    1 July, Saturday

    Time Temperature Precipitation Wind Pressure Humidity
    00:00 +5°C° 0.4 mm 1 mps 621 mmHg 96%
    01:00 +5°C° 0.4 mm 1 mps 621 mmHg 96%
    02:00 +5°C° 0.5 mm 1 mps 621 mmHg 96%
    03:00 +5°C° 0.5 mm 1 mps 621 mmHg 96%
    04:00 +6°C° 0.5 mm 1 mps 622 mmHg 96%
    05:00 +6°C° 0.1 mm 1 mps 622 mmHg 95%
    06:00 +7°C° 0.1 mm 1 mps 623 mmHg 93%
    07:00 +8°C° 0.1 mm 1 mps 623 mmHg 91%
    08:00 +9°C° 0.1 mm 1 mps 624 mmHg 84%
    09:00 +11°C° 0.1 mm 1 mps 624 mmHg 78%
    10:00 +12°C° 0.1 mm 1 mps 625 mmHg 71%
    11:00 +12°C° 0.6 mm 2 mps 625 mmHg 72%
    12:00 +13°C° 0.6 mm 2 mps 625 mmHg 72%
    13:00 +13°C° 0.6 mm 2 mps 625 mmHg 73%
    14:00 +12°C° 1.5 mm 2 mps 625 mmHg 77%
    15:00 +12°C° 1.5 mm 2 mps 624 mmHg 82%
    16:00 +10°C° 1.5 mm 2 mps 624 mmHg 86%
    17:00 +10°C° 2.5 mm 1 mps 624 mmHg 89%
    18:00 +10°C° 2.5 mm 1 mps 624 mmHg 92%
    19:00 +9°C° 2.5 mm 1 mps 624 mmHg 96%
    20:00 +8°C° 0.9 mm 1 mps 624 mmHg 96%
    21:00 +7°C° 0.9 mm 1 mps 624 mmHg 96%
    22:00 +6°C° 0.9 mm 2 mps 625 mmHg 97%
    23:00 +5°C° 0.3 mm 2 mps 625 mmHg 97%

    2 July, Sunday

    Time Temperature Precipitation Wind Pressure Humidity
    00:00 +5°C° 0.3 mm 2 mps 625 mmHg 97%
    01:00 +5°C° 0.3 mm 2 mps 625 mmHg 97%
    02:00 +5°C° 0.5 mm 2 mps 625 mmHg 98%
    03:00 +5°C° 0.5 mm 2 mps 626 mmHg 98%
    04:00 +5°C° 0.5 mm 2 mps 626 mmHg 98%
    05:00 +5°C° 0.3 mm 2 mps 626 mmHg 97%
    06:00 +5°C° 0.3 mm 2 mps 627 mmHg 96%
    07:00 +5°C° 0.3 mm 2 mps 627 mmHg 95%
    08:00 +6°C° 0.2 mm 2 mps 627 mmHg 89%
    09:00 +7°C° 0.2 mm 2 mps 628 mmHg 83%
    10:00 +7°C° 0.2 mm 2 mps 628 mmHg 77%
    11:00 +9°C° 0 mm 2 mps 628 mmHg 73%
    12:00 +10°C° 0 mm 2 mps 628 mmHg 69%
    13:00 +12°C° 0 mm 2 mps 629 mmHg 65%
    14:00 +11°C° 0 mm 3 mps 629 mmHg 64%
    15:00 +12°C° 0 mm 3 mps 629 mmHg 63%
    16:00 +13°C° 0 mm 3 mps 629 mmHg 62%
    17:00 +12°C° 0.1 mm 2 mps 629 mmHg 71%
    18:00 +10°C° 0.1 mm 2 mps 629 mmHg 80%
    19:00 +8°C° 0.1 mm 2 mps 629 mmHg 89%
    20:00 +8°C° 0.3 mm 2 mps 629 mmHg 91%
    21:00 +7°C° 0.3 mm 2 mps 629 mmHg 94%
    22:00 +6°C° 0.3 mm 2 mps 629 mmHg 96%
    23:00 +6°C° 0.2 mm 2 mps 629 mmHg 96%

    3 July, Monday

    Time Temperature Precipitation Wind Pressure Humidity
    00:00 +6°C° 0.2 mm 2 mps 629 mmHg 96%
    01:00 +5°C° 0.2 mm 2 mps 628 mmHg 96%
    02:00 +5°C° 0.2 mm 2 mps 628 mmHg 96%
    03:00 +5°C° 0.2 mm 2 mps 628 mmHg 96%
    04:00 +5°C° 0.2 mm 2 mps 628 mmHg 96%
    05:00 +6°C° 0.2 mm 2 mps 629 mmHg 94%
    06:00 +7°C° 0.2 mm 2 mps 629 mmHg 92%
    07:00 +8°C° 0.2 mm 2 mps 629 mmHg 90%
    08:00 +8°C° 0.2 mm 2 mps 630 mmHg 87%
    09:00 +9°C° 0.2 mm 2 mps 630 mmHg 83%
    10:00 +10°C° 0.2 mm 2 mps 630 mmHg 80%
    11:00 +12°C° 0.3 mm 2 mps 630 mmHg 77%
    12:00 +13°C° 0.3 mm 2 mps 630 mmHg 74%
    13:00 +14°C° 0.3 mm 2 mps 630 mmHg 71%
    14:00 +14°C° 0.4 mm 2 mps 630 mmHg 73%
    15:00 +14°C° 0.4 mm 2 mps 630 mmHg 75%
    16:00 +13°C° 0.4 mm 2 mps 630 mmHg 77%
    17:00 +13°C° 0.3 mm 2 mps 630 mmHg 82%
    18:00 +12°C° 0.3 mm 2 mps 630 mmHg 87%
    19:00 +11°C° 0.3 mm 1 mps 630 mmHg 92%
    20:00 +9°C° 0.2 mm 1 mps 629 mmHg 94%
    21:00 +8°C° 0.2 mm 1 mps 629 mmHg 95%
    22:00 +6°C° 0.2 mm 1 mps 629 mmHg 97%
    23:00 +6°C° 0.1 mm 1 mps 629 mmHg 97%
    Show more